INTELSAT 16 (IS-16)

Last updated on Wed Sep 09 2026 00:02:59 GMT+0000 (Coordinated Universal Time)

1 36397U 10006A 26251.46193015 -.00000266 00000+0 00000+0 0 9993 2 36397 0.0509 283.6163 0002659 262.3881 251.6128 1.00270662 60482
UTC large
Height (km)
Speed (km/s)
/
Latitude / Longitude
Inclination (degrees)
Orbital Period (minutes)
Azimuth
Elevation
Range (km)
Doppler Factor

Next 0 passes for location: London (51.5072 / 0.1276)

No passes found over London.
INTELSAT 16 (IS-16)